星链-32441 (STARLINK-32441)

导读

STARLINK-32441是美国SpaceX公司“星链”(Starlink)星座的第二代低轨通信卫星,于2024年10月26日发射入轨,属于全球规模最大卫星互联网星座的一员。作为星链第二代组网卫星,它采用先进的相控阵天线与激光星间链路技术,可提供高速宽带通信服务,拓展全球偏远地区网络覆盖,同时支持航空、航海及应急通信场景,服役寿命结束后会主动离轨在大气层焚毁,降低空间垃圾风险。

Basic Information
目录编号:
61668
目录名称:
STARLINK-32441
国际标识:
2024-193H
轨道中心:
EARTH
卫星名称:
星链-32441
卫星全名:
星链-32441 (STARLINK-32441)
卫星状态:
在轨 (已飞行678 天)
发射日期:
2024-10-26 UTC
国别 :
美国 (US)
星等 :
--
Orbit Information
数据来源 国际轨道数据
星历时间: 2026-09-04T03:49:59+0800
8小时前
查看轨道信息
半长轴: 6840.838km
偏心率: 0.0001219
轨道倾角: 53.162°
近地点辐角 69.461°
升交点赤经 343.335°
平近点角 290.652°
近地点: 461.867km
远地点: 463.535km
周期: 93.848分钟
每日圈数: 15.344008
Detailed Information
固有亮度:
5
最大亮度:
2.5
卫星平台:
Starlink V1.0
覆盖范围:
全球
运营商:
太空探索技术公司
运营商所在国:
美国
制造商(研发单位):
太空探索技术公司
制造商所在国:
美国
使用方式:
暂无
Satellite Introduction
Starlink 计划是 SpaceX 推出的全球卫星互联网项目,通过发射低轨道卫星,为全球尤其是偏远地区提供高速、低延迟的互联网服务。自 2019 年起,Starlink 已部署数千颗卫星,旨在缩小全球数字鸿沟,推动互联网普及。该项目还为军事、航空等行业提供通信支持,带来广泛经济效益。
2D Orbit Map
3D Orbit Map
Orbit Altitude Analysis Chart
Orbit Inclination Analysis Chart
Orbit Comprehensive Analysis Chart
View Comprehensive Chart
Conjunction Data List
Event ID Objects TCA Miss Dist (km) Collision Risk Probability Collision Risk Index (CRI) Action
CDM_260905-002506-166806-345521
2026-09-05T
00:25:18+0000
0.489 km
远距离
1.087457E-4 高风险 0.76
CDM_260904-172306-166806-345521
2026-09-04T
17:23:14+0000
0.543 km
远距离
8.217268E-5 中风险 0.73
CDM_260905-010206-166806-510221
2026-09-05T
01:02:33+0000
0.788 km
远距离
3.603776E-5 中风险 0.66
CDM_260904-145206-166806-510221
2026-09-04T
14:52:54+0000
0.992 km
远距离
1.668955E-5 中风险 0.59
CDM_260903-075606-166806-321023
2026-09-03T
07:56:00+0000
1.153 km
极远距离
1.635875E-5 中风险 0.59
CDM_260904-012605-866206-166822
2026-09-04T
01:26:58+0000
1.273 km
极远距离
6.590368E-6 低风险 0.51
CDM_260905-081706-166806-536821
2026-09-05T
08:17:04+0000
1.399 km
极远距离
5.267507E-6 低风险 0.49
CDM_260904-154706-166806-467721
2026-09-04T
15:47:48+0000
1.154 km
极远距离
5.051078E-6 低风险 0.49
CDM_260904-203306-166806-536821
2026-09-04T
20:33:38+0000
1.480 km
极远距离
4.380087E-6 低风险 0.48
CDM_260904-162606-166806-510221
2026-09-04T
16:26:42+0000
1.558 km
极远距离
3.639609E-6 低风险 0.46